Retour au catalogue

GLOBALSTAR M106

ActifCommunicationsLEO
NORAD 100329·PAYLOAD·🇺🇸 United States

Lancé Aug 16, 2026 depuis Cape Canaveral Space Force Station

Loading…

Prochains Passages (prochaines 24 heures)

TLE

FraisSource: Space-Track

Époque: Sep 14, 2026, 21:06 UTC

1 A0329U 26185E   26257.87943235  .00000235  00000-0  81533-4 0  9993
2 A0329  51.9956 109.7251 0009188 329.6143  30.4280 14.63877579  4367

Suivez GLOBALSTAR M106 en temps réel avec AllMySat

Download on the App Store